Home > Weather > Narva > Past weeks

Flag for Estonia Past Weather in Narva, Estonia — Yesterday and Last 2 Weeks

Now
80 °F

Warm.


Feels Like: 81 °F
Forecast: 63 / 72 °F
Wind: 3 mph from Southeast

Location: Narva

Current Time: Jul 28, 2016 at 3:38:18 PM

Latest Report: Jul 28, 2016 at 2:00 PM


Visibility: N/A

Pressure: 29.93 "Hg

Humidity: 62%

Dew Point: 65 °F

Location of NarvaLocation

Past Weather in Narva — Graph

°F

Narva Temperature Yesterday

Maximum temperature yesterday: 79 °F (at 1:00 PM)
Minimum temperature yesterday: 61 °F (at 6:00 AM)
Average temperature yesterday: 70 °F

High & Low Weather Summary for the Past Weeks

 TemperatureHumidityPressure
High80 °F (Jul 28, 2:00 PM)100% (Jul 16, 11:00 PM)30.15 "Hg (Jul 16, 11:00 PM)
Low54 °F (Jul 14, 4:00 AM)50% (Jul 14, 3:00 PM)29.63 "Hg (Jul 15, 5:00 PM)
Average65 °F85%29.94 "Hg
* Reported Jul 13 2:00 PM — Jul 28 2:00 PM, Narva, Weather by CustomWeather, © 2016

Note: Actual official high and low records may vary slightly from our data, if they occured in-between our weather recording intervals... More about our weather records

Advertising

Narva Weather History for the Previous 24 Hours

Scroll right to see more
 ConditionsComfort  
Time TempWeatherWind HumidityBarometerVisibility
2:00 PM
Thu, Jul 28
80 °FWarm.3 mph62%29.93 "HgN/A
1:00 PM78 °FWarm.3 mph64%29.94 "HgN/A
12:00 PM77 °FMild.1 mph64%29.96 "HgN/A
11:00 AM76 °FMild.1 mph69%29.96 "HgN/A
10:00 AM73 °FMild.1 mph76%29.96 "HgN/A
9:00 AM72 °FMild.1 mph73%29.97 "HgN/A
8:00 AM70 °FMild.1 mph83%29.98 "HgN/A
7:00 AM64 °FMild.No wind100%29.98 "HgN/A
6:00 AM57 °FCool.No wind100%29.99 "HgN/A
5:00 AM55 °FCool.1 mph100%29.99 "HgN/A
4:00 AM56 °FCool.1 mph99%29.98 "HgN/A
3:00 AM57 °FCool.1 mph100%29.99 "HgN/A
2:00 AM62 °FCool.2 mph99%29.99 "HgN/A
1:00 AM59 °FCool.1 mph100%29.99 "HgN/A
12:00 AM60 °FCool.1 mph100%30.00 "HgN/A
11:00 PM
Wed, Jul 27
61 °FCool.1 mph99%30.00 "HgN/A
10:00 PM64 °FMild.1 mph97%29.99 "HgN/A
9:00 PM69 °FMild.1 mph85%29.98 "HgN/A
8:00 PM73 °FMild.1 mph70%29.97 "HgN/A
7:00 PM74 °FMild.3 mph70%29.97 "HgN/A
6:00 PM75 °FMild.3 mph72%29.98 "HgN/A
5:00 PM76 °FMild.3 mph72%29.98 "HgN/A
4:00 PM76 °FMild.5 mph75%29.98 "HgN/A
3:00 PM74 °FMild.1 mph86%29.98 "HgN/A
Weather by CustomWeather, © 2016

See weather overviewHow to use our weather pages